Location: Unspecified
(0.0000°N, 0.0000°E)
Time: 03:40:37
(UTC+00:00)

CZ-3C DEB - Pass Details

Date: 18 February 2026
Orbit: 506 x 35764 km, 20.4° (Epoch: 1 August)

Event Time Altitude Azimuth Distance (km) Brightness Sun altitude
Rises 17:48:49 0° 247° (WSW) 8,655 ? 6.1°
Reaches altitude 10° 17:52:35 10° 247° (WSW) 8,744 ? 5.2°
Maximum altitude 19:30:15 74° 273° (W) 24,071 ? -18.7°
Enters shadow 02:21:49 30° 297° (WNW) 22,377 ? -56.3°
Exits shadow 03:21:19 43° 314° (NW) 9,105 ? -42.1°
Drops below altitude 10° 03:47:32 10° 80° (E) 3,837 ? -35.8°
Sets 03:49:19 0° 85° (E) 4,284 ? -35.3°
